User: anonymous   Login
Location: Erba
(45.8000°N, 9.2500°E)
Time: 21:22:37
(UTC+01:00)
Language:

ISS - Orbit

View from above orbital plane
View from above orbital plane
View from above satellite
View from above satellite

Ground track
Ground track

The orbit data is extracted from the following two-line orbital elements,

1 25544U 98067A   21024.72835840  .00016717  00000-0  10270-3 0  9104
2 25544  51.6457 332.2903 0002325 288.1845  71.9052 15.48918086 26350
Epoch (UTC): 24 January 2021 17:28:50
Eccentricity: 0.0002325
inclination: 51.6457°
perigee height: 418 km
apogee height: 421 km
right ascension of ascending node: 332.2903°
argument of perigee: 288.1845°
revolutions per day: 15.48918086
mean anomaly at epoch: 71.9052°
orbit number at epoch: 2635

The dashed part of the orbit path shows where the satellite is in the earth's shadow,  

DLR